Time,TemperatureF,DewpointF,PressureIn,WindDirection,WindDirectionDegrees,WindSpeedMPH,WindSpeedGustMPH,Humidity,HourlyPrecipIn,Conditions,Clouds,dailyrainin,SoftwareType,DateUTC
2013-03-19 00:12:00,35.0,15.0,-100.00,WSW,247,1.0,4.0,43,0.00,,,0.00,,2013-03-19 06:12:00,
2013-03-19 00:22:00,35.0,15.0,-100.00,WSW,247,1.0,4.0,43,0.00,,,0.00,,2013-03-19 06:22:00,
2013-03-19 00:32:00,35.0,15.0,-100.00,WSW,247,1.0,4.0,43,0.00,,,0.00,,2013-03-19 06:32:00,
2013-03-19 00:42:00,35.0,15.0,-100.00,WSW,247,1.0,4.0,43,0.00,,,0.00,,2013-03-19 06:42:00,
2013-03-19 00:52:00,35.0,15.0,-100.00,WSW,247,1.0,4.0,43,0.00,,,0.00,,2013-03-19 06:52:00,
2013-03-19 01:12:00,37.0,7.0,-100.00,WNW,283,2.0,3.0,28,0.00,,,0.00,,2013-03-19 07:12:00,
2013-03-19 01:21:00,37.0,7.0,-100.00,WNW,283,2.0,3.0,28,0.00,,,0.00,,2013-03-19 07:21:00,
2013-03-19 01:32:00,37.0,7.0,-100.00,WNW,283,2.0,3.0,28,0.00,,,0.00,,2013-03-19 07:32:00,
2013-03-19 01:42:00,37.0,7.0,-100.00,WNW,283,2.0,3.0,28,0.00,,,0.00,,2013-03-19 07:42:00,
2013-03-19 01:52:00,37.0,7.0,-100.00,WNW,283,2.0,3.0,28,0.00,,,0.00,,2013-03-19 07:52:00,
2013-03-19 02:12:00,38.0,11.0,-100.00,SE,141,2.0,7.0,33,0.00,,,0.00,,2013-03-19 08:12:00,
2013-03-19 02:22:00,38.0,11.0,-100.00,SE,141,2.0,7.0,33,0.00,,,0.00,,2013-03-19 08:22:00,
2013-03-19 02:32:00,38.0,11.0,-100.00,SE,141,2.0,7.0,33,0.00,,,0.00,,2013-03-19 08:32:00,
2013-03-19 02:42:00,38.0,11.0,-100.00,SE,141,2.0,7.0,33,0.00,,,0.00,,2013-03-19 08:42:00,
2013-03-19 02:52:00,38.0,11.0,-100.00,SE,141,2.0,7.0,33,0.00,,,0.00,,2013-03-19 08:52:00,
2013-03-19 03:12:00,34.0,11.0,-100.00,NE,38,1.0,3.0,37,0.00,,,0.00,,2013-03-19 09:12:00,
2013-03-19 03:22:00,34.0,11.0,-100.00,NE,38,1.0,3.0,37,0.00,,,0.00,,2013-03-19 09:22:00,
2013-03-19 03:32:00,34.0,11.0,-100.00,NE,38,1.0,3.0,37,0.00,,,0.00,,2013-03-19 09:32:00,
2013-03-19 03:43:00,34.0,11.0,-100.00,NE,38,1.0,3.0,37,0.00,,,0.00,,2013-03-19 09:43:00,
2013-03-19 03:52:00,34.0,11.0,-100.00,NE,38,1.0,3.0,37,0.00,,,0.00,,2013-03-19 09:52:00,
2013-03-19 04:23:00,35.0,10.0,-100.00,WNW,295,1.0,3.0,35,0.00,,,0.00,,2013-03-19 10:23:00,
2013-03-19 04:32:00,35.0,10.0,-100.00,WNW,295,1.0,3.0,35,0.00,,,0.00,,2013-03-19 10:32:00,
2013-03-19 04:42:00,35.0,10.0,-100.00,WNW,295,1.0,3.0,35,0.00,,,0.00,,2013-03-19 10:42:00,
2013-03-19 04:52:00,35.0,10.0,-100.00,WNW,295,1.0,3.0,35,0.00,,,0.00,,2013-03-19 10:52:00,
2013-03-19 05:22:00,33.0,3.0,-100.00,ESE,111,1.0,3.0,27,0.00,,,0.00,,2013-03-19 11:22:00,
2013-03-19 05:32:00,33.0,3.0,-100.00,ESE,111,1.0,3.0,27,0.00,,,0.00,,2013-03-19 11:32:00,
2013-03-19 05:42:00,33.0,3.0,-100.00,ESE,111,1.0,3.0,27,0.00,,,0.00,,2013-03-19 11:42:00,
2013-03-19 05:52:00,33.0,3.0,-100.00,ESE,111,1.0,3.0,27,0.00,,,0.00,,2013-03-19 11:52:00,
2013-03-19 06:12:00,34.0,7.0,-100.00,West,268,1.0,2.0,32,0.00,,,0.00,,2013-03-19 12:12:00,
2013-03-19 06:22:00,34.0,7.0,-100.00,West,268,1.0,2.0,32,0.00,,,0.00,,2013-03-19 12:22:00,
2013-03-19 06:33:00,34.0,7.0,-100.00,West,268,1.0,2.0,32,0.00,,,0.00,,2013-03-19 12:33:00,
2013-03-19 06:42:00,34.0,7.0,-100.00,West,268,1.0,2.0,32,0.00,,,0.00,,2013-03-19 12:42:00,
2013-03-19 06:52:00,34.0,7.0,-100.00,West,268,1.0,2.0,32,0.00,,,0.00,,2013-03-19 12:52:00,
2013-03-19 07:22:00,35.0,14.0,-100.00,NE,56,1.0,2.0,41,0.00,,,0.00,,2013-03-19 13:22:00,
2013-03-19 07:32:00,35.0,14.0,-100.00,NE,56,1.0,2.0,41,0.00,,,0.00,,2013-03-19 13:32:00,
2013-03-19 07:42:00,35.0,14.0,-100.00,NE,56,1.0,2.0,41,0.00,,,0.00,,2013-03-19 13:42:00,
2013-03-19 07:52:00,35.0,14.0,-100.00,NE,56,1.0,2.0,41,0.00,,,0.00,,2013-03-19 13:52:00,
2013-03-19 08:12:00,37.0,11.0,-100.00,NW,315,1.0,2.0,33,0.00,,,0.00,,2013-03-19 14:12:00,
2013-03-19 08:22:00,37.0,11.0,-100.00,NW,315,1.0,2.0,33,0.00,,,0.00,,2013-03-19 14:22:00,
2013-03-19 08:32:00,37.0,11.0,-100.00,NW,315,1.0,2.0,33,0.00,,,0.00,,2013-03-19 14:32:00,
2013-03-19 08:42:00,37.0,11.0,-100.00,NW,315,1.0,2.0,33,0.00,,,0.00,,2013-03-19 14:42:00,
2013-03-19 08:52:00,37.0,11.0,-100.00,NW,315,1.0,2.0,33,0.00,,,0.00,,2013-03-19 14:52:00,
2013-03-19 08:53:00,44.0,10.0,-100.00,NNE,23,1.0,3.0,25,0.00,,,0.00,,2013-03-19 14:53:00,
2013-03-19 09:22:00,44.0,10.0,-100.00,NNE,23,1.0,3.0,25,0.00,,,0.00,,2013-03-19 15:22:00,
2013-03-19 09:34:00,44.0,10.0,-100.00,NNE,23,1.0,3.0,25,0.00,,,0.00,,2013-03-19 15:34:00,
2013-03-19 09:43:00,44.0,10.0,-100.00,NNE,23,1.0,3.0,25,0.00,,,0.00,,2013-03-19 15:43:00,
2013-03-19 09:53:00,48.0,11.0,-100.00,SSE,163,2.0,7.0,22,0.00,,,0.00,,2013-03-19 15:53:00,
2013-03-19 10:24:00,48.0,11.0,-100.00,SSE,163,2.0,7.0,22,0.00,,,0.00,,2013-03-19 16:24:00,
2013-03-19 10:34:00,48.0,11.0,-100.00,SSE,163,2.0,7.0,22,0.00,,,0.00,,2013-03-19 16:34:00,
2013-03-19 10:44:00,48.0,11.0,-100.00,SSE,163,2.0,7.0,22,0.00,,,0.00,,2013-03-19 16:44:00,
2013-03-19 11:23:00,52.0,4.0,-100.00,North,1,2.0,5.0,14,0.00,,,0.00,,2013-03-19 17:23:00,
2013-03-19 11:34:00,52.0,4.0,-100.00,North,1,2.0,5.0,14,0.00,,,0.00,,2013-03-19 17:34:00,
2013-03-19 11:44:00,52.0,4.0,-100.00,North,1,2.0,5.0,14,0.00,,,0.00,,2013-03-19 17:44:00,
2013-03-19 11:52:00,52.0,4.0,-100.00,North,1,2.0,5.0,14,0.00,,,0.00,,2013-03-19 17:52:00,
2013-03-19 11:53:00,54.0,4.0,-100.00,ESE,104,2.0,4.0,13,0.00,,,0.00,,2013-03-19 17:53:00,
2013-03-19 12:13:00,54.0,4.0,-100.00,ESE,104,2.0,4.0,13,0.00,,,0.00,,2013-03-19 18:13:00,
2013-03-19 12:23:00,54.0,4.0,-100.00,ESE,104,2.0,4.0,13,0.00,,,0.00,,2013-03-19 18:23:00,
2013-03-19 12:33:00,54.0,4.0,-100.00,ESE,104,2.0,4.0,13,0.00,,,0.00,,2013-03-19 18:33:00,
2013-03-19 12:43:00,54.0,4.0,-100.00,ESE,104,2.0,4.0,13,0.00,,,0.00,,2013-03-19 18:43:00,
2013-03-19 13:22:00,58.0,6.0,-100.00,ESE,117,2.0,5.0,12,0.00,,,0.00,,2013-03-19 19:22:00,
2013-03-19 13:33:00,58.0,6.0,-100.00,ESE,117,2.0,5.0,12,0.00,,,0.00,,2013-03-19 19:33:00,
2013-03-19 13:42:00,58.0,6.0,-100.00,ESE,117,2.0,5.0,12,0.00,,,0.00,,2013-03-19 19:42:00,
2013-03-19 13:52:00,58.0,6.0,-100.00,ESE,117,2.0,5.0,12,0.00,,,0.00,,2013-03-19 19:52:00,
2013-03-19 14:22:00,63.0,11.0,-100.00,East,84,3.0,7.0,13,0.00,,,0.00,,2013-03-19 20:22:00,
2013-03-19 14:32:00,63.0,11.0,-100.00,East,84,3.0,7.0,13,0.00,,,0.00,,2013-03-19 20:32:00,
2013-03-19 14:42:00,63.0,11.0,-100.00,East,84,3.0,7.0,13,0.00,,,0.00,,2013-03-19 20:42:00,
2013-03-19 14:52:00,63.0,11.0,-100.00,East,84,3.0,7.0,13,0.00,,,0.00,,2013-03-19 20:52:00,
2013-03-19 15:23:00,66.0,10.0,-100.00,NW,305,7.0,18.0,11,0.00,,,0.00,,2013-03-19 21:23:00,
2013-03-19 15:34:00,66.0,10.0,-100.00,NW,305,7.0,18.0,11,0.00,,,0.00,,2013-03-19 21:34:00,
2013-03-19 15:43:00,66.0,10.0,-100.00,NW,305,7.0,18.0,11,0.00,,,0.00,,2013-03-19 21:43:00,
2013-03-19 15:52:00,66.0,10.0,-100.00,NW,305,7.0,18.0,11,0.00,,,0.00,,2013-03-19 21:52:00,
2013-03-19 15:53:00,65.0,9.0,-100.00,NW,308,8.0,20.0,11,0.00,,,0.00,,2013-03-19 21:53:00,
2013-03-19 16:23:00,65.0,9.0,-100.00,NW,308,8.0,20.0,11,0.00,,,0.00,,2013-03-19 22:23:00,
2013-03-19 16:33:00,65.0,9.0,-100.00,NW,308,8.0,20.0,11,0.00,,,0.00,,2013-03-19 22:33:00,
2013-03-19 16:43:00,65.0,9.0,-100.00,NW,308,8.0,20.0,11,0.00,,,0.00,,2013-03-19 22:43:00,
2013-03-19 17:22:00,63.0,8.0,-100.00,NW,305,9.0,25.0,11,0.00,,,0.00,,2013-03-19 23:22:00,
2013-03-19 17:32:00,63.0,8.0,-100.00,NW,305,9.0,25.0,11,0.00,,,0.00,,2013-03-19 23:32:00,
2013-03-19 17:42:00,63.0,8.0,-100.00,NW,305,9.0,25.0,11,0.00,,,0.00,,2013-03-19 23:42:00,
2013-03-19 17:52:00,63.0,8.0,-100.00,NW,305,9.0,25.0,11,0.00,,,0.00,,2013-03-19 23:52:00,
2013-03-19 18:22:00,63.0,10.0,-100.00,NW,321,7.0,20.0,12,0.00,,,0.00,,2013-03-20 00:22:00,
2013-03-19 18:33:00,63.0,10.0,-100.00,NW,321,7.0,20.0,12,0.00,,,0.00,,2013-03-20 00:33:00,
2013-03-19 18:42:00,63.0,10.0,-100.00,NW,321,7.0,20.0,12,0.00,,,0.00,,2013-03-20 00:42:00,
2013-03-19 18:52:00,63.0,10.0,-100.00,NW,321,7.0,20.0,12,0.00,,,0.00,,2013-03-20 00:52:00,
2013-03-19 19:12:00,60.0,9.0,-100.00,NW,324,4.0,13.0,13,0.00,,,0.00,,2013-03-20 01:12:00,
2013-03-19 19:22:00,60.0,9.0,-100.00,NW,324,4.0,13.0,13,0.00,,,0.00,,2013-03-20 01:22:00,
2013-03-19 19:32:00,60.0,9.0,-100.00,NW,324,4.0,13.0,13,0.00,,,0.00,,2013-03-20 01:32:00,
2013-03-19 19:42:00,60.0,9.0,-100.00,NW,324,4.0,13.0,13,0.00,,,0.00,,2013-03-20 01:42:00,
2013-03-19 19:52:00,60.0,9.0,-100.00,NW,324,4.0,13.0,13,0.00,,,0.00,,2013-03-20 01:52:00,
2013-03-19 20:12:00,56.0,9.0,-100.00,NW,312,4.0,10.0,15,0.00,,,0.00,,2013-03-20 02:12:00,
2013-03-19 20:22:00,56.0,9.0,-100.00,NW,312,4.0,10.0,15,0.00,,,0.00,,2013-03-20 02:22:00,
2013-03-19 20:32:00,56.0,9.0,-100.00,NW,312,4.0,10.0,15,0.00,,,0.00,,2013-03-20 02:32:00,
2013-03-19 20:42:00,56.0,9.0,-100.00,NW,312,4.0,10.0,15,0.00,,,0.00,,2013-03-20 02:42:00,
2013-03-19 20:52:00,56.0,9.0,-100.00,NW,312,4.0,10.0,15,0.00,,,0.00,,2013-03-20 02:52:00,
2013-03-19 20:53:00,46.0,8.0,-100.00,NW,309,2.0,5.0,21,0.00,,,0.00,,2013-03-20 02:53:00,
2013-03-19 21:22:00,46.0,8.0,-100.00,NW,309,2.0,5.0,21,0.00,,,0.00,,2013-03-20 03:22:00,
2013-03-19 21:34:00,46.0,8.0,-100.00,NW,309,2.0,5.0,21,0.00,,,0.00,,2013-03-20 03:34:00,
2013-03-19 21:42:00,46.0,8.0,-100.00,NW,309,2.0,5.0,21,0.00,,,0.00,,2013-03-20 03:42:00,
2013-03-19 22:12:00,43.0,10.0,-100.00,NW,307,3.0,7.0,25,0.00,,,0.00,,2013-03-20 04:12:00,
2013-03-19 22:23:00,43.0,10.0,-100.00,NW,307,3.0,7.0,25,0.00,,,0.00,,2013-03-20 04:23:00,
2013-03-19 22:32:00,43.0,10.0,-100.00,NW,307,3.0,7.0,25,0.00,,,0.00,,2013-03-20 04:32:00,
2013-03-19 22:43:00,43.0,10.0,-100.00,NW,307,3.0,7.0,25,0.00,,,0.00,,2013-03-20 04:43:00,
2013-03-19 22:52:00,43.0,10.0,-100.00,NW,307,3.0,7.0,25,0.00,,,0.00,,2013-03-20 04:52:00,
2013-03-19 23:23:00,43.0,12.0,-100.00,NNE,19,2.0,4.0,28,0.00,,,0.00,,2013-03-20 05:23:00,
2013-03-19 23:32:00,43.0,12.0,-100.00,NNE,19,2.0,4.0,28,0.00,,,0.00,,2013-03-20 05:32:00,
2013-03-19 23:42:00,43.0,12.0,-100.00,NNE,19,2.0,4.0,28,0.00,,,0.00,,2013-03-20 05:42:00,
2013-03-19 23:52:00,43.0,12.0,-100.00,NNE,19,2.0,4.0,28,0.00,,,0.00,,2013-03-20 05:52:00,